Time,TemperatureF,DewpointF,PressureIn,WindDirection,WindDirectionDegrees,WindSpeedMPH,WindSpeedGustMPH,Humidity,HourlyPrecipIn,Conditions,Clouds,dailyrainin,SoftwareType,DateUTC
2013-05-17 00:00:00,44.0,-99.9,30.13,North,360,11.0,-999.0,-999,-99.99,,,-99.99,,2013-05-17 05:00:00,
2013-05-17 00:22:00,44.0,-99.9,30.13,North,360,11.0,-999.0,-999,-99.99,,,-99.99,,2013-05-17 05:22:00,
2013-05-17 00:32:00,44.0,-99.9,30.13,North,360,11.0,-999.0,-999,-99.99,,,-99.99,,2013-05-17 05:32:00,
2013-05-17 00:43:00,44.0,-99.9,30.13,North,360,11.0,-999.0,-999,-99.99,,,-99.99,,2013-05-17 05:43:00,
2013-05-17 00:52:00,44.0,-99.9,30.13,North,360,11.0,-999.0,-999,-99.99,,,-99.99,,2013-05-17 05:52:00,
2013-05-17 01:00:00,43.0,-99.9,30.13,North,10,15.0,-999.0,-999,-99.99,,,-99.99,,2013-05-17 06:00:00,
2013-05-17 01:22:00,43.0,-99.9,30.13,North,10,15.0,-999.0,-999,-99.99,,,-99.99,,2013-05-17 06:22:00,
2013-05-17 01:32:00,43.0,-99.9,30.13,North,10,15.0,-999.0,-999,-99.99,,,-99.99,,2013-05-17 06:32:00,
2013-05-17 01:42:00,43.0,-99.9,30.13,North,10,15.0,-999.0,-999,-99.99,,,-99.99,,2013-05-17 06:42:00,
2013-05-17 01:52:00,43.0,-99.9,30.13,North,10,15.0,-999.0,-999,-99.99,,,-99.99,,2013-05-17 06:52:00,
2013-05-17 02:00:00,42.0,-99.9,30.13,NNE,20,17.0,-999.0,-999,-99.99,,,-99.99,,2013-05-17 07:00:00,
2013-05-17 02:21:00,42.0,-99.9,30.13,NNE,20,17.0,-999.0,-999,-99.99,,,-99.99,,2013-05-17 07:21:00,
2013-05-17 02:32:00,42.0,-99.9,30.13,NNE,20,17.0,-999.0,-999,-99.99,,,-99.99,,2013-05-17 07:32:00,
2013-05-17 02:43:00,42.0,-99.9,30.13,NNE,20,17.0,-999.0,-999,-99.99,,,-99.99,,2013-05-17 07:43:00,
2013-05-17 02:53:00,42.0,-99.9,30.13,NNE,20,17.0,-999.0,-999,-99.99,,,-99.99,,2013-05-17 07:53:00,
2013-05-17 03:00:00,42.0,-99.9,30.14,NNE,20,16.0,-999.0,-999,-99.99,,,-99.99,,2013-05-17 08:00:00,
2013-05-17 03:23:00,42.0,-99.9,30.14,NNE,20,16.0,-999.0,-999,-99.99,,,-99.99,,2013-05-17 08:23:00,
2013-05-17 03:34:00,42.0,-99.9,30.14,NNE,20,16.0,-999.0,-999,-99.99,,,-99.99,,2013-05-17 08:34:00,
2013-05-17 03:43:00,42.0,-99.9,30.14,NNE,20,16.0,-999.0,-999,-99.99,,,-99.99,,2013-05-17 08:43:00,
2013-05-17 03:52:00,42.0,-99.9,30.14,NNE,20,16.0,-999.0,-999,-99.99,,,-99.99,,2013-05-17 08:52:00,
2013-05-17 04:00:00,42.0,-99.9,30.14,NNE,20,16.0,-999.0,-999,-99.99,,,-99.99,,2013-05-17 09:00:00,
2013-05-17 04:23:00,42.0,-99.9,30.14,NNE,20,16.0,-999.0,-999,-99.99,,,-99.99,,2013-05-17 09:23:00,
2013-05-17 04:33:00,42.0,-99.9,30.14,NNE,20,16.0,-999.0,-999,-99.99,,,-99.99,,2013-05-17 09:33:00,
2013-05-17 04:42:00,42.0,-99.9,30.14,NNE,20,16.0,-999.0,-999,-99.99,,,-99.99,,2013-05-17 09:42:00,
2013-05-17 04:53:00,42.0,-99.9,30.14,NNE,20,16.0,-999.0,-999,-99.99,,,-99.99,,2013-05-17 09:53:00,
2013-05-17 05:00:00,42.0,-99.9,30.15,NNE,20,11.0,-999.0,-999,-99.99,,,-99.99,,2013-05-17 10:00:00,
2013-05-17 05:23:00,42.0,-99.9,30.15,NNE,20,11.0,-999.0,-999,-99.99,,,-99.99,,2013-05-17 10:23:00,
2013-05-17 05:33:00,42.0,-99.9,30.15,NNE,20,11.0,-999.0,-999,-99.99,,,-99.99,,2013-05-17 10:33:00,
2013-05-17 05:42:00,42.0,-99.9,30.15,NNE,20,11.0,-999.0,-999,-99.99,,,-99.99,,2013-05-17 10:42:00,
2013-05-17 05:54:00,42.0,-99.9,30.15,NNE,20,11.0,-999.0,-999,-99.99,,,-99.99,,2013-05-17 10:54:00,
2013-05-17 06:00:00,42.0,-99.9,30.18,North,10,6.0,-999.0,-999,-99.99,,,-99.99,,2013-05-17 11:00:00,
2013-05-17 06:23:00,42.0,-99.9,30.18,North,10,6.0,-999.0,-999,-99.99,,,-99.99,,2013-05-17 11:23:00,
2013-05-17 06:34:00,42.0,-99.9,30.18,North,10,6.0,-999.0,-999,-99.99,,,-99.99,,2013-05-17 11:34:00,
2013-05-17 06:42:00,42.0,-99.9,30.18,North,10,6.0,-999.0,-999,-99.99,,,-99.99,,2013-05-17 11:42:00,
2013-05-17 06:53:00,42.0,-99.9,30.18,North,10,6.0,-999.0,-999,-99.99,,,-99.99,,2013-05-17 11:53:00,
2013-05-17 07:00:00,43.0,-99.9,30.20,North,350,6.0,-999.0,-999,-99.99,,,-99.99,,2013-05-17 12:00:00,
2013-05-17 07:23:00,43.0,-99.9,30.20,North,350,6.0,-999.0,-999,-99.99,,,-99.99,,2013-05-17 12:23:00,
2013-05-17 07:33:00,43.0,-99.9,30.20,North,350,6.0,-999.0,-999,-99.99,,,-99.99,,2013-05-17 12:33:00,
2013-05-17 07:43:00,43.0,-99.9,30.20,North,350,6.0,-999.0,-999,-99.99,,,-99.99,,2013-05-17 12:43:00,
2013-05-17 07:53:00,43.0,-99.9,30.20,North,350,6.0,-999.0,-999,-99.99,,,-99.99,,2013-05-17 12:53:00,
2013-05-17 08:00:00,45.0,-99.9,30.23,North,0,6.0,-999.0,-999,-99.99,,,-99.99,,2013-05-17 13:00:00,
2013-05-17 08:23:00,45.0,-99.9,30.23,North,0,6.0,-999.0,-999,-99.99,,,-99.99,,2013-05-17 13:23:00,
2013-05-17 08:33:00,45.0,-99.9,30.23,North,0,6.0,-999.0,-999,-99.99,,,-99.99,,2013-05-17 13:33:00,
2013-05-17 08:42:00,45.0,-99.9,30.23,North,0,6.0,-999.0,-999,-99.99,,,-99.99,,2013-05-17 13:42:00,
2013-05-17 08:52:00,45.0,-99.9,30.23,North,0,6.0,-999.0,-999,-99.99,,,-99.99,,2013-05-17 13:52:00,
2013-05-17 09:00:00,45.0,-99.9,30.22,NNE,20,10.0,-999.0,-999,-99.99,,,-99.99,,2013-05-17 14:00:00,
2013-05-17 09:22:00,45.0,-99.9,30.22,NNE,20,10.0,-999.0,-999,-99.99,,,-99.99,,2013-05-17 14:22:00,
2013-05-17 09:34:00,45.0,-99.9,30.22,NNE,20,10.0,-999.0,-999,-99.99,,,-99.99,,2013-05-17 14:34:00,
2013-05-17 09:43:00,45.0,-99.9,30.22,NNE,20,10.0,-999.0,-999,-99.99,,,-99.99,,2013-05-17 14:43:00,
2013-05-17 09:53:00,45.0,-99.9,30.22,NNE,20,10.0,-999.0,-999,-99.99,,,-99.99,,2013-05-17 14:53:00,
2013-05-17 10:00:00,46.0,-99.9,30.22,East,90,7.0,-999.0,-999,-99.99,,,-99.99,,2013-05-17 15:00:00,
2013-05-17 10:25:00,46.0,-99.9,30.22,East,90,7.0,-999.0,-999,-99.99,,,-99.99,,2013-05-17 15:25:00,
2013-05-17 10:38:00,46.0,-99.9,30.22,East,90,7.0,-999.0,-999,-99.99,,,-99.99,,2013-05-17 15:38:00,
2013-05-17 10:48:00,46.0,-99.9,30.22,East,90,7.0,-999.0,-999,-99.99,,,-99.99,,2013-05-17 15:48:00,
2013-05-17 10:57:00,46.0,-99.9,30.22,East,90,7.0,-999.0,-999,-99.99,,,-99.99,,2013-05-17 15:57:00,
2013-05-17 11:00:00,43.0,-99.9,30.22,East,90,13.0,-999.0,-999,-99.99,,,-99.99,,2013-05-17 16:00:00,
2013-05-17 11:26:00,43.0,-99.9,30.22,East,90,13.0,-999.0,-999,-99.99,,,-99.99,,2013-05-17 16:26:00,
2013-05-17 11:37:00,43.0,-99.9,30.22,East,90,13.0,-999.0,-999,-99.99,,,-99.99,,2013-05-17 16:37:00,
2013-05-17 11:50:00,43.0,-99.9,30.22,East,90,13.0,-999.0,-999,-99.99,,,-99.99,,2013-05-17 16:50:00,
2013-05-17 11:56:00,43.0,-99.9,30.22,East,90,13.0,-999.0,-999,-99.99,,,-99.99,,2013-05-17 16:56:00,
2013-05-17 12:00:00,41.0,-99.9,30.22,ENE,70,10.0,-999.0,-999,-99.99,,,-99.99,,2013-05-17 17:00:00,
2013-05-17 12:41:00,41.0,-99.9,30.22,ENE,70,10.0,-999.0,-999,-99.99,,,-99.99,,2013-05-17 17:41:00,
2013-05-17 12:49:00,41.0,-99.9,30.22,ENE,70,10.0,-999.0,-999,-99.99,,,-99.99,,2013-05-17 17:49:00,
2013-05-17 13:00:00,40.0,-99.9,30.20,East,80,9.0,-999.0,-999,-99.99,,,-99.99,,2013-05-17 18:00:00,
2013-05-17 13:41:00,40.0,-99.9,30.20,East,80,9.0,-999.0,-999,-99.99,,,-99.99,,2013-05-17 18:41:00,
2013-05-17 13:51:00,-999.0,-99.9,30.20,East,80,9.0,-999.0,-999,-99.99,,,-99.99,,2013-05-17 18:51:00,
2013-05-17 14:00:00,41.0,-99.9,30.19,East,100,10.0,-999.0,-999,-99.99,,,-99.99,,2013-05-17 19:00:00,
2013-05-17 14:41:00,41.0,-99.9,30.19,East,100,10.0,-999.0,-999,-99.99,,,-99.99,,2013-05-17 19:41:00,
2013-05-17 14:51:00,41.0,-99.9,30.19,East,100,10.0,-999.0,-999,-99.99,,,-99.99,,2013-05-17 19:51:00,
2013-05-17 15:00:00,41.0,-99.9,30.16,East,80,9.0,-999.0,-999,-99.99,,,-99.99,,2013-05-17 20:00:00,
2013-05-17 15:30:00,41.0,-99.9,30.16,East,80,9.0,-999.0,-999,-99.99,,,-99.99,,2013-05-17 20:30:00,
2013-05-17 15:41:00,41.0,-99.9,30.16,East,80,9.0,-999.0,-999,-99.99,,,-99.99,,2013-05-17 20:41:00,
2013-05-17 15:50:00,41.0,-99.9,30.16,East,80,9.0,-999.0,-999,-99.99,,,-99.99,,2013-05-17 20:50:00,
2013-05-17 15:58:00,41.0,-99.9,30.16,East,80,9.0,-999.0,-999,-99.99,,,-99.99,,2013-05-17 20:58:00,
2013-05-17 16:00:00,44.0,-99.9,30.16,North,10,6.0,-999.0,-999,-99.99,,,-99.99,,2013-05-17 21:00:00,
2013-05-17 16:39:00,44.0,-99.9,30.16,North,10,6.0,-999.0,-999,-99.99,,,-99.99,,2013-05-17 21:39:00,
2013-05-17 16:49:00,44.0,-99.9,30.16,North,10,6.0,-999.0,-999,-99.99,,,-99.99,,2013-05-17 21:49:00,
2013-05-17 16:58:00,44.0,-99.9,30.16,North,10,6.0,-999.0,-999,-99.99,,,-99.99,,2013-05-17 21:58:00,
2013-05-17 17:00:00,43.0,-99.9,30.15,NNE,30,10.0,-999.0,-999,-99.99,,,-99.99,,2013-05-17 22:00:00,
2013-05-17 17:28:00,43.0,-99.9,30.15,NNE,30,10.0,-999.0,-999,-99.99,,,-99.99,,2013-05-17 22:28:00,
2013-05-17 17:38:00,43.0,-99.9,30.15,NNE,30,10.0,-999.0,-999,-99.99,,,-99.99,,2013-05-17 22:38:00,
2013-05-17 17:47:00,43.0,-99.9,30.15,NNE,30,10.0,-999.0,-999,-99.99,,,-99.99,,2013-05-17 22:47:00,
2013-05-17 17:55:00,43.0,-99.9,30.15,NNE,30,10.0,-999.0,-999,-99.99,,,-99.99,,2013-05-17 22:55:00,
2013-05-17 18:00:00,41.0,-99.9,30.14,North,0,13.0,-999.0,-999,-99.99,,,-99.99,,2013-05-17 23:00:00,
2013-05-17 18:23:00,41.0,-99.9,30.14,North,0,13.0,-999.0,-999,-99.99,,,-99.99,,2013-05-17 23:23:00,
2013-05-17 18:38:00,41.0,-99.9,30.14,North,0,13.0,-999.0,-999,-99.99,,,-99.99,,2013-05-17 23:38:00,
2013-05-17 18:47:00,41.0,-99.9,30.14,North,0,13.0,-999.0,-999,-99.99,,,-99.99,,2013-05-17 23:47:00,
2013-05-17 18:54:00,41.0,-99.9,30.14,North,0,13.0,-999.0,-999,-99.99,,,-99.99,,2013-05-17 23:54:00,
2013-05-17 23:00:00,50.0,-99.9,30.10,ENE,60,15.0,-999.0,-999,-99.99,,,-99.99,,2013-05-18 04:00:00,
2013-05-17 23:23:00,50.0,-99.9,30.10,ENE,60,15.0,-999.0,-999,-99.99,,,-99.99,,2013-05-18 04:23:00,
2013-05-17 23:33:00,50.0,-99.9,30.10,ENE,60,15.0,-999.0,-999,-99.99,,,-99.99,,2013-05-18 04:33:00,
2013-05-17 23:43:00,50.0,-99.9,30.10,ENE,60,15.0,-999.0,-999,-99.99,,,-99.99,,2013-05-18 04:43:00,
2013-05-17 23:53:00,50.0,-99.9,30.10,ENE,60,15.0,-999.0,-999,-99.99,,,-99.99,,2013-05-18 04:53:00,